AirNav   Phillips 66 Aviation Fuel
 
 302 users online  

IL44 Arrow Heliport
Fox Lake, Illinois, USA

GOING TO FOX LAKE?


FAA INFORMATION EFFECTIVE 01 FEBRUARY 2018

Location

FAA Identifier: IL44
Lat/Long: 42-24-12.0740N / 088-11-15.3080W
42-24.201233N / 088-11.255133W
42.4033539 / -88.1875856
(estimated)
Elevation: 738 ft. / 225 m (estimated)
Variation: 01W (1985)
Time zone: UTC -6 (UTC -5 during Daylight Saving Time)
Zip code: 60020

Heliport Operations

Heliport use: Private use. Permission required prior to landing
Activation date: 06/1988
Control tower: no
ARTCC: CHICAGO CENTER
FSS: KANKAKEE FLIGHT SERVICE STATION
Attendance: UNATNDD
Wind indicator: yes
Segmented circle: no

Heliport Communications

WX ASOS at UGN (14 nm E): PHONE 847-782-0876
WX ASOS at ENW (16 nm NE): PHONE 262-652-7730
WX AWOS-3 at BUU (18 nm N): 114.5 (262-757-0907)

Nearby radio navigation aids

VOR radial/distance  VOR name  Freq  Var
OBKr318/15.1NORTHBROOK VOR/DME113.0002W
BUUr165/17.9BURBUN VOR/DME114.5001W
ORDr331/27.9CHICAGO O'HARE VOR/DME113.9002E
DPAr011/31.6DUPAGE VOR/DME108.4002E

 
NDB name  Hdg/Dist  Freq  Var  ID
CODEE219/11.838902WEN . -.
LAKE LAWN137/25.240402WLVV .-.. ...- ...-

Heliport Services

Runway Information

Helipad H1

Dimensions: 60 x 60 ft. / 18 x 18 m
Surface: asphalt
Traffic pattern: leftleft

Heliport Ownership and Management from official FAA records

Ownership: Privately-owned
Owner: TRINSKI & SON
100 N ROUTE 12
FOX LAKE, IL 60020
Phone (847) 366-6453
Manager: MIKE TRINSKI
100 N ROUTE 12
FOX LAKE, IL 60020
Phone (847) 366-6453

Heliport Operational Statistics

Aircraft based on the field: 2
Single engine airplanes: 1
Helicopters: 1
    

Instrument Procedures

There are no published instrument procedures at IL44.

Some nearby airports with instrument procedures:

C81 - Campbell Airport (7 nm SE)
10C - Galt Field Airport (8 nm W)
3CK - Lake in the Hills Airport (13 nm SW)
KUGN - Waukegan National Airport (14 nm E)
C02 - Grand Geneva Resort Airport (16 nm NW)
KENW - Kenosha Regional Airport (16 nm NE)
KBUU - Burlington Municipal Airport (18 nm N)
 
Loc | Ops | Rwys | IFR | FBO | Links
Com | Nav | Svcs | Stats | Notes

AirNav Hotels Sweepstakes
 
Area around IL44 (Arrow Heliport)
 
Road maps at: MapQuest Bing Google
 
Aerial photo
No photo
 
Sectional chart

 
Airport distance calculator
Flying to Arrow Heliport? Find the distance to fly.

From to IL44

Sunrise and sunset
Times for 20-Feb-2018
 Local
(UTC-6)
 Zulu
(UTC)
Morning civil twilight06:1512:15
Sunrise06:4312:43
Sunset17:3023:30
Evening civil twilight17:5923:59

Current date and time
Zulu (UTC)  20-Feb-2018 09:43:13
Local (UTC-6)  20-Feb-2018 03:43:13
 
METAR
KUGN 
14nm E 
200916Z AUTO 22014KT 4SM -RA BR FEW045 OVC080 14/14 A2979 RMK AO2 P0006 T01440144
KENW 
16nm NE 
200917Z AUTO 23008KT 3SM RA BR OVC008 14/13 A2978 RMK AO2 P0007 T01390128
KBUU 
18nm N 
200915Z AUTO 20003KT 1/4SM RA OVC002 07/07 A2978 RMK AO2 P0002 T00720068
KPWK 
21nm SE 
200852Z AUTO 21011G18KT 4SM -RA BR BKN010 OVC015 16/15 A2982 RMK AO2 CIG 008V013 SLP096 P0015 60030 T01610150 51002
K06C 
25nm S 
200915Z AUTO 22009G17KT 7SM OVC007 14/14 A2981 RMK AO2 P0002 T01410135
KRAC 
27nm NE 
200907Z AUTO 00000KT 2SM RA BR OVC004 03/03 A2981 RMK AO2 P0002 T00280028
KORD 
28nm SE 
200913Z 21012KT 5SM RA BR OVC009 16/14 A2981 RMK AO2 CIG 007V015 P0005 T01560139 $
TAF
KENW 
16nm NE 
200702Z 2007/2106 22010KT 3SM RA BR BKN008 OVC030 FM200900 28004KT 1SM -RA BR OVC005 WS020/23030KT FM201400 21009KT 2SM RA BR OVC005 FM202300 27008KT 2SM RA BR OVC005 FM210300 30011KT 2SM BR OVC010 FM210500 31012G20KT P6SM OVC045
NOTAMs
Click for the latest NOTAMs
NOTAMs are issued by the DoD/FAA and will open in a separate window not controlled by AirNav.

 

 
 

Would you like to see your business listed on this page?

 If your business provides an interesting product or service to pilots, flight crews, aircraft, or users of the Arrow Heliport, you should consider listing it here.  To start the listing process, click on the button below
 
Add a business
 

Other Pages about Arrow Heliport

Update a link
 
Copyright © AirNav, LLC. All rights reserved. Privacy Policy  Contact